Powrót do katalogu

STARLINK-37941

AktywnyŁącznośćSSO
NORAD 69667·PAYLOAD·🇺🇸 United States

Wystrzelony Jun 21, 2026 z Vandenberg Space Force Base

Loading…

Następne Przeloty (najbliższe 24 godziny)

TLE

ŚwieżeSource: CelesTrak SupGP

Epoka: Sep 14, 2026, 21:23 UTC

1 69667C 26143U   26257.89145833  .00002272  00000+0  70539-4 0  2570
2 69667  97.2838 301.1558 0000995  99.7730 224.8008 15.33427575    11

Śledź STARLINK-37941 w czasie rzeczywistym z AllMySat

Download on the App Store